Time,TemperatureF,DewpointF,PressureIn,WindDirection,WindDirectionDegrees,WindSpeedMPH,WindSpeedGustMPH,Humidity,HourlyPrecipIn,Conditions,Clouds,dailyrainin,SoftwareType,DateUTC
2013-08-20 00:01:00,69.8,67.1,29.86,SE,146,6.0,7.0,91,0.00,,,0.00,Wunderground v.1.15,2013-08-20 05:01:00,
2013-08-20 00:07:00,69.7,67.0,29.86,SSE,162,5.0,5.0,91,0.00,,,0.00,Wunderground v.1.15,2013-08-20 05:07:00,
2013-08-20 00:12:00,69.7,67.0,29.86,South,175,6.0,7.0,91,0.00,,,0.00,Wunderground v.1.15,2013-08-20 05:12:00,
2013-08-20 00:18:00,69.6,66.9,29.86,SE,146,4.0,5.0,91,0.00,,,0.00,Wunderground v.1.15,2013-08-20 05:18:00,
2013-08-20 00:23:00,69.5,66.8,29.86,SSE,154,3.0,5.0,91,0.00,,,0.00,Wunderground v.1.15,2013-08-20 05:23:00,
2013-08-20 00:29:00,69.4,66.7,29.86,SSE,159,5.0,6.0,91,0.00,,,0.00,Wunderground v.1.15,2013-08-20 05:29:00,
2013-08-20 00:35:00,69.4,66.7,29.86,SSE,156,5.0,5.0,91,0.00,,,0.00,Wunderground v.1.15,2013-08-20 05:35:00,
2013-08-20 00:41:00,69.3,66.9,29.86,SSE,164,5.0,6.0,92,0.00,,,0.00,Wunderground v.1.15,2013-08-20 05:41:00,
2013-08-20 00:46:00,69.2,66.8,29.86,SE,145,4.0,4.0,92,0.00,,,0.00,Wunderground v.1.15,2013-08-20 05:46:00,
2013-08-20 00:52:00,69.2,66.8,29.86,SSE,153,4.0,5.0,92,0.00,,,0.00,Wunderground v.1.15,2013-08-20 05:52:00,
2013-08-20 00:58:00,69.2,66.8,29.86,SSE,159,4.0,5.0,92,0.00,,,0.00,Wunderground v.1.15,2013-08-20 05:58:00,
2013-08-20 01:04:00,69.3,66.9,29.86,SSE,165,7.0,7.0,92,0.00,,,0.00,Wunderground v.1.15,2013-08-20 06:04:00,
2013-08-20 01:09:00,69.3,66.9,29.86,South,173,6.0,6.0,92,0.00,,,0.00,Wunderground v.1.15,2013-08-20 06:09:00,
2013-08-20 01:15:00,69.2,66.8,29.86,SSE,156,5.0,6.0,92,0.00,,,0.00,Wunderground v.1.15,2013-08-20 06:15:00,
2013-08-20 01:20:00,69.2,66.8,29.86,SSE,159,6.0,7.0,92,0.00,,,0.00,Wunderground v.1.15,2013-08-20 06:20:00,
2013-08-20 01:26:00,69.2,66.8,29.85,South,169,5.0,5.0,92,0.00,,,0.00,Wunderground v.1.15,2013-08-20 06:26:00,
2013-08-20 01:32:00,69.2,66.8,29.85,SSE,152,4.0,8.0,92,0.00,,,0.00,Wunderground v.1.15,2013-08-20 06:32:00,
2013-08-20 01:38:00,69.1,66.7,29.85,SSE,165,5.0,6.0,92,0.00,,,0.00,Wunderground v.1.15,2013-08-20 06:38:00,
2013-08-20 01:44:00,69.1,66.7,29.85,SSE,150,3.0,6.0,92,0.00,,,0.00,Wunderground v.1.15,2013-08-20 06:44:00,
2013-08-20 01:50:00,69.0,66.6,29.85,SSE,158,5.0,5.0,92,0.00,,,0.00,Wunderground v.1.15,2013-08-20 06:50:00,
2013-08-20 01:56:00,69.0,66.6,29.85,South,175,6.0,6.0,92,0.00,,,0.00,Wunderground v.1.15,2013-08-20 06:56:00,
2013-08-20 02:01:00,69.2,66.5,29.85,SSE,159,5.0,7.0,91,0.00,,,0.00,Wunderground v.1.15,2013-08-20 07:01:00,
2013-08-20 02:06:00,69.4,66.7,29.85,SSE,162,5.0,5.0,91,0.00,,,0.00,Wunderground v.1.15,2013-08-20 07:06:00,
2013-08-20 02:11:00,69.7,66.6,29.85,South,169,9.0,10.0,90,0.00,,,0.00,Wunderground v.1.15,2013-08-20 07:11:00,
2013-08-20 02:16:00,70.0,66.9,29.84,SSE,156,6.0,7.0,90,0.00,,,0.00,Wunderground v.1.15,2013-08-20 07:16:00,
2013-08-20 02:21:00,70.2,66.8,29.85,South,169,9.0,12.0,89,0.00,,,0.00,Wunderground v.1.15,2013-08-20 07:21:00,
2013-08-20 02:26:00,70.5,66.8,29.84,South,172,7.0,9.0,88,0.00,,,0.00,Wunderground v.1.15,2013-08-20 07:26:00,
2013-08-20 02:31:00,70.6,66.9,29.84,South,181,4.0,11.0,88,0.00,,,0.00,Wunderground v.1.15,2013-08-20 07:31:00,
2013-08-20 02:36:00,70.5,66.8,29.84,South,186,4.0,10.0,88,0.00,,,0.00,Wunderground v.1.15,2013-08-20 07:36:00,
2013-08-20 02:41:00,70.4,66.7,29.84,South,173,8.0,11.0,88,0.00,,,0.00,Wunderground v.1.15,2013-08-20 07:41:00,
2013-08-20 02:46:00,70.3,66.6,29.84,South,170,7.0,8.0,88,0.00,,,0.00,Wunderground v.1.15,2013-08-20 07:46:00,
2013-08-20 02:51:00,70.1,66.4,29.84,South,178,6.0,9.0,88,0.00,,,0.00,Wunderground v.1.15,2013-08-20 07:51:00,
2013-08-20 02:56:00,70.0,66.3,29.84,SSE,168,5.0,10.0,88,0.00,,,0.00,Wunderground v.1.15,2013-08-20 07:56:00,
2013-08-20 03:01:00,69.9,66.2,29.84,South,180,5.0,10.0,88,0.00,,,0.00,Wunderground v.1.15,2013-08-20 08:01:00,
2013-08-20 03:06:00,70.0,66.3,29.84,South,174,6.0,10.0,88,0.00,,,0.00,Wunderground v.1.15,2013-08-20 08:06:00,
2013-08-20 03:11:00,69.9,66.2,29.84,South,186,6.0,11.0,88,0.00,,,0.00,Wunderground v.1.15,2013-08-20 08:11:00,
2013-08-20 03:16:00,69.9,66.2,29.84,South,175,6.0,9.0,88,0.00,,,0.00,Wunderground v.1.15,2013-08-20 08:16:00,
2013-08-20 03:21:00,69.8,66.4,29.83,SSE,168,7.0,9.0,89,0.00,,,0.00,Wunderground v.1.15,2013-08-20 08:21:00,
2013-08-20 03:26:00,69.7,66.3,29.83,South,169,10.0,10.0,89,0.00,,,0.00,Wunderground v.1.15,2013-08-20 08:26:00,
2013-08-20 03:31:00,69.7,66.3,29.83,South,175,8.0,11.0,89,0.00,,,0.00,Wunderground v.1.15,2013-08-20 08:31:00,
2013-08-20 03:36:00,69.7,66.3,29.83,SSE,164,7.0,10.0,89,0.00,,,0.00,Wunderground v.1.15,2013-08-20 08:36:00,
2013-08-20 03:41:00,69.7,66.3,29.83,SSE,165,7.0,11.0,89,0.00,,,0.00,Wunderground v.1.15,2013-08-20 08:41:00,
2013-08-20 03:46:00,69.7,66.3,29.83,South,174,7.0,11.0,89,0.00,,,0.00,Wunderground v.1.15,2013-08-20 08:46:00,
2013-08-20 03:51:00,69.7,66.3,29.83,SSE,161,8.0,11.0,89,0.00,,,0.00,Wunderground v.1.15,2013-08-20 08:51:00,
2013-08-20 03:56:00,69.7,66.3,29.83,South,169,10.0,10.0,89,0.00,,,0.00,Wunderground v.1.15,2013-08-20 08:56:00,
2013-08-20 04:01:00,69.5,66.1,29.83,SSE,158,5.0,11.0,89,0.00,,,0.00,Wunderground v.1.15,2013-08-20 09:01:00,
2013-08-20 04:06:00,69.4,66.0,29.83,SSE,163,8.0,9.0,89,0.00,,,0.00,Wunderground v.1.15,2013-08-20 09:06:00,
2013-08-20 04:11:00,69.3,65.9,29.83,SSE,155,7.0,9.0,89,0.00,,,0.00,Wunderground v.1.15,2013-08-20 09:11:00,
2013-08-20 04:16:00,69.2,65.8,29.83,South,171,4.0,7.0,89,0.00,,,0.00,Wunderground v.1.15,2013-08-20 09:16:00,
2013-08-20 04:21:00,69.1,66.0,29.83,South,169,6.0,11.0,90,0.00,,,0.00,Wunderground v.1.15,2013-08-20 09:21:00,
2013-08-20 04:26:00,69.0,65.9,29.83,SSE,163,6.0,8.0,90,0.00,,,0.00,Wunderground v.1.15,2013-08-20 09:26:00,
2013-08-20 04:31:00,68.8,65.7,29.83,SE,146,6.0,9.0,90,0.00,,,0.00,Wunderground v.1.15,2013-08-20 09:31:00,
2013-08-20 04:36:00,68.6,65.9,29.83,SSE,153,7.0,8.0,91,0.00,,,0.00,Wunderground v.1.15,2013-08-20 09:36:00,
2013-08-20 04:41:00,68.5,65.8,29.83,SSE,165,6.0,8.0,91,0.00,,,0.00,Wunderground v.1.15,2013-08-20 09:41:00,
2013-08-20 04:46:00,68.3,65.6,29.83,SE,146,4.0,8.0,91,0.00,,,0.00,Wunderground v.1.15,2013-08-20 09:46:00,
2013-08-20 04:51:00,68.1,65.4,29.82,SSE,148,6.0,8.0,91,0.00,,,0.00,Wunderground v.1.15,2013-08-20 09:51:00,
2013-08-20 04:56:00,68.0,65.6,29.82,SSE,168,5.0,8.0,92,0.00,,,0.00,Wunderground v.1.15,2013-08-20 09:56:00,
2013-08-20 05:01:00,67.8,65.4,29.82,South,169,4.0,8.0,92,0.00,,,0.00,Wunderground v.1.15,2013-08-20 10:01:00,
2013-08-20 05:06:00,67.5,65.1,29.82,SSE,162,5.0,7.0,92,0.00,,,0.00,Wunderground v.1.15,2013-08-20 10:06:00,
2013-08-20 05:11:00,67.3,65.2,29.82,SSE,162,5.0,7.0,93,0.00,,,0.00,Wunderground v.1.15,2013-08-20 10:11:00,
2013-08-20 05:16:00,67.2,65.1,29.82,SSE,159,5.0,6.0,93,0.00,,,0.00,Wunderground v.1.15,2013-08-20 10:16:00,
2013-08-20 05:21:00,67.1,65.0,29.82,South,169,5.0,7.0,93,0.00,,,0.00,Wunderground v.1.15,2013-08-20 10:21:00,
2013-08-20 05:26:00,67.0,64.9,29.82,SSE,153,3.0,5.0,93,0.00,,,0.00,Wunderground v.1.15,2013-08-20 10:26:00,
2013-08-20 05:31:00,66.7,64.6,29.82,SSE,157,3.0,5.0,93,0.00,,,0.00,Wunderground v.1.15,2013-08-20 10:31:00,
2013-08-20 05:36:00,66.6,64.8,29.82,SSE,157,5.0,5.0,94,0.00,,,0.00,Wunderground v.1.15,2013-08-20 10:36:00,
2013-08-20 05:42:00,66.6,64.8,29.82,SSE,155,4.0,6.0,94,0.00,,,0.00,Wunderground v.1.15,2013-08-20 10:42:00,
2013-08-20 05:46:00,66.5,64.7,29.82,SSE,148,4.0,5.0,94,0.00,,,0.00,Wunderground v.1.15,2013-08-20 10:46:00,
2013-08-20 05:51:00,66.4,64.6,29.82,SSE,157,5.0,6.0,94,0.00,,,0.00,Wunderground v.1.15,2013-08-20 10:51:00,
2013-08-20 05:56:00,66.3,64.5,29.82,SSE,162,4.0,5.0,94,0.00,,,0.00,Wunderground v.1.15,2013-08-20 10:56:00,
2013-08-20 06:01:00,66.3,64.5,29.83,SSE,154,3.0,5.0,94,0.00,,,0.00,Wunderground v.1.15,2013-08-20 11:01:00,
2013-08-20 06:06:00,66.3,64.5,29.82,SSE,153,4.0,6.0,94,0.00,,,0.00,Wunderground v.1.15,2013-08-20 11:06:00,
2013-08-20 06:12:00,66.3,64.5,29.83,SSE,155,3.0,6.0,94,0.00,,,0.00,Wunderground v.1.15,2013-08-20 11:12:00,
2013-08-20 06:17:00,66.3,64.5,29.83,SSE,158,5.0,5.0,94,0.00,,,0.00,Wunderground v.1.15,2013-08-20 11:17:00,
2013-08-20 06:22:00,66.3,64.8,29.83,South,170,2.0,5.0,95,0.00,,,0.00,Wunderground v.1.15,2013-08-20 11:22:00,
2013-08-20 06:27:00,66.3,64.5,29.83,SSE,165,4.0,5.0,94,0.00,,,0.00,Wunderground v.1.15,2013-08-20 11:27:00,
2013-08-20 06:32:00,66.3,64.8,29.83,SSE,157,3.0,6.0,95,0.00,,,0.00,Wunderground v.1.15,2013-08-20 11:32:00,
2013-08-20 06:37:00,66.3,64.8,29.83,SSE,150,3.0,5.0,95,0.00,,,0.00,Wunderground v.1.15,2013-08-20 11:37:00,
2013-08-20 06:42:00,66.3,64.8,29.83,SE,144,4.0,5.0,95,0.00,,,0.00,Wunderground v.1.15,2013-08-20 11:42:00,
2013-08-20 06:47:00,66.2,64.7,29.83,SE,135,3.0,5.0,95,0.00,,,0.00,Wunderground v.1.15,2013-08-20 11:47:00,
2013-08-20 06:52:00,66.2,64.7,29.84,SSE,149,2.0,5.0,95,0.00,,,0.00,Wunderground v.1.15,2013-08-20 11:52:00,
2013-08-20 06:57:00,66.1,64.6,29.84,SSE,153,4.0,4.0,95,0.00,,,0.00,Wunderground v.1.15,2013-08-20 11:57:00,
2013-08-20 07:02:00,66.4,64.9,29.84,SE,128,3.0,6.0,95,0.00,,,0.00,Wunderground v.1.15,2013-08-20 12:02:00,
2013-08-20 07:07:00,66.7,65.2,29.84,SSE,148,5.0,6.0,95,0.00,,,0.00,Wunderground v.1.15,2013-08-20 12:07:00,
2013-08-20 07:12:00,66.9,65.4,29.83,SE,146,3.0,6.0,95,0.00,,,0.00,Wunderground v.1.15,2013-08-20 12:12:00,
2013-08-20 07:17:00,67.2,65.7,29.83,SSE,149,3.0,5.0,95,0.00,,,0.00,Wunderground v.1.15,2013-08-20 12:17:00,
2013-08-20 07:22:00,67.4,65.9,29.83,SSE,155,3.0,5.0,95,0.00,,,0.00,Wunderground v.1.15,2013-08-20 12:22:00,
2013-08-20 07:27:00,67.6,65.8,29.83,SSE,155,2.0,6.0,94,0.00,,,0.00,Wunderground v.1.15,2013-08-20 12:27:00,
2013-08-20 07:32:00,67.7,65.9,29.83,SSE,157,6.0,6.0,94,0.00,,,0.00,Wunderground v.1.15,2013-08-20 12:32:00,
2013-08-20 07:37:00,67.9,66.1,29.83,SSE,160,4.0,7.0,94,0.00,,,0.00,Wunderground v.1.15,2013-08-20 12:37:00,
2013-08-20 07:42:00,68.1,66.3,29.83,South,171,5.0,7.0,94,0.00,,,0.00,Wunderground v.1.15,2013-08-20 12:42:00,
2013-08-20 07:47:00,68.4,66.6,29.83,SSE,153,5.0,6.0,94,0.00,,,0.00,Wunderground v.1.15,2013-08-20 12:47:00,
2013-08-20 07:52:00,68.6,66.8,29.83,SSE,153,4.0,7.0,94,0.00,,,0.00,Wunderground v.1.15,2013-08-20 12:52:00,
2013-08-20 07:57:00,68.8,67.0,29.84,South,172,3.0,7.0,94,0.00,,,0.00,Wunderground v.1.15,2013-08-20 12:57:00,
2013-08-20 08:02:00,69.0,67.2,29.84,South,172,5.0,7.0,94,0.00,,,0.00,Wunderground v.1.15,2013-08-20 13:02:00,
2013-08-20 08:07:00,69.4,67.3,29.84,SSE,165,5.0,8.0,93,0.00,,,0.00,Wunderground v.1.15,2013-08-20 13:07:00,
2013-08-20 08:12:00,69.9,67.5,29.84,South,188,4.0,8.0,92,0.00,,,0.00,Wunderground v.1.15,2013-08-20 13:12:00,
2013-08-20 08:17:00,70.4,68.0,29.84,SSE,163,7.0,7.0,92,0.00,,,0.00,Wunderground v.1.15,2013-08-20 13:17:00,
2013-08-20 08:22:00,71.0,67.9,29.84,South,176,10.0,10.0,90,0.00,,,0.00,Wunderground v.1.15,2013-08-20 13:22:00,
2013-08-20 08:27:00,71.5,68.1,29.84,South,185,7.0,11.0,89,0.00,,,0.00,Wunderground v.1.15,2013-08-20 13:27:00,
2013-08-20 08:32:00,71.7,68.0,29.84,SSW,192,12.0,15.0,88,0.00,,,0.00,Wunderground v.1.15,2013-08-20 13:32:00,
2013-08-20 08:37:00,72.0,68.2,29.84,SW,223,8.0,12.0,88,0.00,,,0.00,Wunderground v.1.15,2013-08-20 13:37:00,
2013-08-20 08:42:00,72.3,68.5,29.84,South,182,8.0,13.0,88,0.00,,,0.00,Wunderground v.1.15,2013-08-20 13:42:00,
2013-08-20 08:47:00,72.5,68.4,29.84,SSW,197,9.0,12.0,87,0.00,,,0.00,Wunderground v.1.15,2013-08-20 13:47:00,
2013-08-20 08:52:00,72.8,68.7,29.84,SSW,210,7.0,15.0,87,0.00,,,0.00,Wunderground v.1.15,2013-08-20 13:52:00,
2013-08-20 08:57:00,73.3,68.9,29.84,SW,215,12.0,12.0,86,0.00,,,0.00,Wunderground v.1.15,2013-08-20 13:57:00,
2013-08-20 09:02:00,73.4,69.3,29.84,SSW,209,8.0,14.0,87,0.00,,,0.00,Wunderground v.1.15,2013-08-20 14:02:00,
2013-08-20 09:07:00,73.9,69.1,29.84,SSW,207,9.0,12.0,85,0.00,,,0.00,Wunderground v.1.15,2013-08-20 14:07:00,
2013-08-20 09:12:00,73.9,69.1,29.84,SSW,210,10.0,14.0,85,0.00,,,0.00,Wunderground v.1.15,2013-08-20 14:12:00,
2013-08-20 09:17:00,74.2,69.1,29.84,South,178,10.0,14.0,84,0.00,,,0.00,Wunderground v.1.15,2013-08-20 14:17:00,
2013-08-20 09:22:00,74.3,69.1,29.84,South,181,6.0,14.0,84,0.00,,,0.00,Wunderground v.1.15,2013-08-20 14:22:00,
2013-08-20 09:27:00,74.8,70.0,29.83,South,183,9.0,11.0,85,0.00,,,0.00,Wunderground v.1.15,2013-08-20 14:27:00,
2013-08-20 09:32:00,75.2,69.7,29.83,SSW,196,9.0,13.0,83,0.00,,,0.00,Wunderground v.1.15,2013-08-20 14:32:00,
2013-08-20 09:37:00,75.2,69.3,29.84,SSW,200,9.0,15.0,82,0.00,,,0.00,Wunderground v.1.15,2013-08-20 14:37:00,
2013-08-20 09:42:00,75.5,70.0,29.83,SW,217,8.0,15.0,83,0.00,,,0.00,Wunderground v.1.15,2013-08-20 14:42:00,
2013-08-20 09:47:00,75.8,70.3,29.83,South,188,8.0,12.0,83,0.00,,,0.00,Wunderground v.1.15,2013-08-20 14:47:00,
2013-08-20 09:52:00,76.0,69.4,29.84,SSW,196,9.0,13.0,80,0.00,,,0.00,Wunderground v.1.15,2013-08-20 14:52:00,
2013-08-20 09:57:00,75.8,69.6,29.84,SSW,198,9.0,13.0,81,0.00,,,0.00,Wunderground v.1.15,2013-08-20 14:57:00,
2013-08-20 10:02:00,76.0,70.1,29.84,SSW,196,9.0,13.0,82,0.00,,,0.00,Wunderground v.1.15,2013-08-20 15:02:00,
2013-08-20 10:07:00,76.4,70.9,29.84,SSW,195,9.0,12.0,83,0.00,,,0.00,Wunderground v.1.15,2013-08-20 15:07:00,
2013-08-20 10:12:00,76.8,70.5,29.84,SW,228,6.0,13.0,81,0.00,,,0.00,Wunderground v.1.15,2013-08-20 15:12:00,
2013-08-20 10:17:00,77.0,70.4,29.84,SSW,210,10.0,12.0,80,0.00,,,0.00,Wunderground v.1.15,2013-08-20 15:17:00,
2013-08-20 10:22:00,76.2,69.9,29.84,SW,214,6.0,14.0,81,0.00,,,0.00,Wunderground v.1.15,2013-08-20 15:22:00,
2013-08-20 10:27:00,76.5,70.6,29.83,SW,215,10.0,12.0,82,0.00,,,0.00,Wunderground v.1.15,2013-08-20 15:27:00,
2013-08-20 10:32:00,76.9,70.3,29.84,SW,218,7.0,12.0,80,0.00,,,0.00,Wunderground v.1.15,2013-08-20 15:32:00,
2013-08-20 10:37:00,77.7,71.0,29.84,SSW,211,5.0,10.0,80,0.00,,,0.00,Wunderground v.1.15,2013-08-20 15:37:00,
2013-08-20 10:42:00,78.4,71.3,29.84,SSW,192,10.0,13.0,79,0.00,,,0.00,Wunderground v.1.15,2013-08-20 15:42:00,
2013-08-20 10:47:00,78.4,71.3,29.84,SW,229,9.0,9.0,79,0.00,,,0.00,Wunderground v.1.15,2013-08-20 15:47:00,
2013-08-20 10:52:00,78.2,70.8,29.84,SW,227,6.0,13.0,78,0.00,,,0.00,Wunderground v.1.15,2013-08-20 15:52:00,
2013-08-20 10:57:00,77.6,70.9,29.84,SW,230,6.0,13.0,80,0.00,,,0.00,Wunderground v.1.15,2013-08-20 15:57:00,
2013-08-20 11:02:00,78.3,70.9,29.84,SSW,213,8.0,13.0,78,0.00,,,0.00,Wunderground v.1.15,2013-08-20 16:02:00,
2013-08-20 11:07:00,78.2,71.5,29.84,South,190,8.0,9.0,80,0.00,,,0.00,Wunderground v.1.15,2013-08-20 16:07:00,
2013-08-20 11:12:00,79.1,71.3,29.84,SW,225,11.0,12.0,77,0.00,,,0.00,Wunderground v.1.15,2013-08-20 16:12:00,
2013-08-20 11:17:00,79.2,71.4,29.84,SSW,202,10.0,11.0,77,0.00,,,0.00,Wunderground v.1.15,2013-08-20 16:17:00,
2013-08-20 11:22:00,79.1,71.6,29.84,South,186,11.0,13.0,78,0.00,,,0.00,Wunderground v.1.15,2013-08-20 16:22:00,
2013-08-20 11:27:00,79.4,71.6,29.84,SW,227,6.0,11.0,77,0.00,,,0.00,Wunderground v.1.15,2013-08-20 16:27:00,
2013-08-20 11:32:00,79.7,71.8,29.84,SW,219,9.0,11.0,77,0.00,,,0.00,Wunderground v.1.15,2013-08-20 16:32:00,
2013-08-20 11:37:00,79.9,72.0,29.84,SW,219,6.0,11.0,77,0.00,,,0.00,Wunderground v.1.15,2013-08-20 16:37:00,
2013-08-20 11:42:00,80.2,72.7,29.84,SSW,208,6.0,11.0,78,0.00,,,0.00,Wunderground v.1.15,2013-08-20 16:42:00,
2013-08-20 11:47:00,80.3,72.4,29.84,SSW,192,7.0,11.0,77,0.00,,,0.00,Wunderground v.1.15,2013-08-20 16:47:00,
2013-08-20 11:52:00,80.3,72.8,29.84,SW,232,7.0,13.0,78,0.00,,,0.00,Wunderground v.1.15,2013-08-20 16:52:00,
2013-08-20 11:57:00,80.8,72.5,29.84,South,190,7.0,13.0,76,0.00,,,0.00,Wunderground v.1.15,2013-08-20 16:57:00,
2013-08-20 12:02:00,80.4,71.7,29.84,SSW,201,8.0,13.0,75,0.00,,,0.00,Wunderground v.1.15,2013-08-20 17:02:00,
2013-08-20 12:07:00,81.5,72.8,29.84,South,171,9.0,13.0,75,0.00,,,0.00,Wunderground v.1.15,2013-08-20 17:07:00,
2013-08-20 12:12:00,81.7,73.4,29.83,SW,217,10.0,13.0,76,0.00,,,0.00,Wunderground v.1.15,2013-08-20 17:12:00,
2013-08-20 12:17:00,81.7,72.6,29.83,South,189,10.0,15.0,74,0.00,,,0.00,Wunderground v.1.15,2013-08-20 17:17:00,
2013-08-20 12:22:00,82.3,73.6,29.83,SSW,210,11.0,15.0,75,0.00,,,0.00,Wunderground v.1.15,2013-08-20 17:22:00,
2013-08-20 12:27:00,82.2,73.1,29.83,SSE,156,3.0,9.0,74,0.00,,,0.00,Wunderground v.1.15,2013-08-20 17:27:00,
2013-08-20 12:32:00,82.1,73.0,29.83,SSW,194,8.0,14.0,74,0.00,,,0.00,Wunderground v.1.15,2013-08-20 17:32:00,
2013-08-20 12:37:00,81.9,72.8,29.83,SSW,203,7.0,12.0,74,0.00,,,0.00,Wunderground v.1.15,2013-08-20 17:37:00,
2013-08-20 12:42:00,82.3,74.0,29.82,SSE,161,7.0,15.0,76,0.00,,,0.00,Wunderground v.1.15,2013-08-20 17:42:00,
2013-08-20 12:47:00,82.4,72.9,29.82,South,190,9.0,14.0,73,0.00,,,0.00,Wunderground v.1.15,2013-08-20 17:47:00,
2013-08-20 12:52:00,82.0,72.5,29.82,SSW,194,10.0,14.0,73,0.00,,,0.00,Wunderground v.1.15,2013-08-20 17:52:00,
2013-08-20 12:57:00,82.3,73.6,29.82,SSW,203,9.0,12.0,75,0.00,,,0.00,Wunderground v.1.15,2013-08-20 17:57:00,
2013-08-20 13:02:00,82.9,73.8,29.82,SSW,199,9.0,12.0,74,0.00,,,0.00,Wunderground v.1.15,2013-08-20 18:02:00,
2013-08-20 13:07:00,82.8,74.1,29.82,SSE,168,12.0,13.0,75,0.00,,,0.00,Wunderground v.1.15,2013-08-20 18:07:00,
2013-08-20 13:12:00,84.2,74.2,29.82,South,188,10.0,14.0,72,0.00,,,0.00,Wunderground v.1.15,2013-08-20 18:12:00,
2013-08-20 13:17:00,83.5,73.9,29.82,SSW,205,7.0,15.0,73,0.00,,,0.00,Wunderground v.1.15,2013-08-20 18:17:00,
2013-08-20 13:22:00,82.9,73.4,29.82,South,176,8.0,15.0,73,0.00,,,0.00,Wunderground v.1.15,2013-08-20 18:22:00,
2013-08-20 13:27:00,82.9,73.4,29.82,SW,221,10.0,14.0,73,0.00,,,0.00,Wunderground v.1.15,2013-08-20 18:27:00,
2013-08-20 13:32:00,83.1,74.4,29.82,South,178,7.0,14.0,75,0.00,,,0.00,Wunderground v.1.15,2013-08-20 18:32:00,
2013-08-20 13:37:00,83.5,73.5,29.82,WSW,238,6.0,11.0,72,0.00,,,0.00,Wunderground v.1.15,2013-08-20 18:37:00,
2013-08-20 13:42:00,83.5,73.9,29.82,SSW,206,12.0,16.0,73,0.00,,,0.00,Wunderground v.1.15,2013-08-20 18:42:00,
2013-08-20 13:47:00,83.4,73.8,29.82,SSW,198,6.0,11.0,73,0.00,,,0.00,Wunderground v.1.15,2013-08-20 18:47:00,
2013-08-20 13:53:00,84.0,73.6,29.82,South,187,5.0,14.0,71,0.00,,,0.00,Wunderground v.1.15,2013-08-20 18:53:00,
2013-08-20 13:58:00,84.3,74.3,29.81,WSW,239,9.0,13.0,72,0.00,,,0.00,Wunderground v.1.15,2013-08-20 18:58:00,
2013-08-20 14:03:00,84.7,75.1,29.81,SW,217,11.0,15.0,73,0.00,,,0.00,Wunderground v.1.15,2013-08-20 19:03:00,
2013-08-20 14:08:00,84.4,74.0,29.81,SSW,196,4.0,11.0,71,0.00,,,0.00,Wunderground v.1.15,2013-08-20 19:08:00,
2013-08-20 14:13:00,84.5,74.9,29.81,South,191,10.0,13.0,73,0.00,,,0.00,Wunderground v.1.15,2013-08-20 19:13:00,
2013-08-20 14:18:00,84.6,75.0,29.81,SW,218,8.0,11.0,73,0.00,,,0.00,Wunderground v.1.15,2013-08-20 19:18:00,
2013-08-20 14:23:00,84.3,73.9,29.81,SW,219,5.0,14.0,71,0.00,,,0.00,Wunderground v.1.15,2013-08-20 19:23:00,
2013-08-20 14:28:00,85.1,75.1,29.81,SW,223,9.0,14.0,72,0.00,,,0.00,Wunderground v.1.15,2013-08-20 19:28:00,
2013-08-20 14:33:00,84.3,73.9,29.81,SSE,147,8.0,14.0,71,0.00,,,0.00,Wunderground v.1.15,2013-08-20 19:33:00,
2013-08-20 14:38:00,84.7,74.3,29.81,SW,235,7.0,12.0,71,0.00,,,0.00,Wunderground v.1.15,2013-08-20 19:38:00,
2013-08-20 14:43:00,85.1,74.6,29.81,South,178,7.0,12.0,71,0.00,,,0.00,Wunderground v.1.15,2013-08-20 19:43:00,
2013-08-20 14:48:00,84.7,74.3,29.81,SSW,212,6.0,12.0,71,0.00,,,0.00,Wunderground v.1.15,2013-08-20 19:48:00,
2013-08-20 14:53:00,85.2,73.9,29.81,SW,222,6.0,14.0,69,0.00,,,0.00,Wunderground v.1.15,2013-08-20 19:53:00,
2013-08-20 14:58:00,84.4,74.0,29.80,SSW,198,6.0,14.0,71,0.00,,,0.00,Wunderground v.1.15,2013-08-20 19:58:00,
2013-08-20 15:03:00,84.2,73.8,29.80,SE,135,5.0,14.0,71,0.00,,,0.00,Wunderground v.1.15,2013-08-20 20:03:00,
2013-08-20 15:08:00,85.1,75.5,29.80,South,180,4.0,12.0,73,0.00,,,0.00,Wunderground v.1.15,2013-08-20 20:08:00,
2013-08-20 15:13:00,86.0,74.6,29.80,SSW,213,9.0,12.0,69,0.00,,,0.00,Wunderground v.1.15,2013-08-20 20:13:00,
2013-08-20 15:18:00,86.0,75.1,29.80,SSW,202,7.0,15.0,70,0.00,,,0.00,Wunderground v.1.15,2013-08-20 20:18:00,
2013-08-20 15:23:00,85.2,74.7,29.80,SW,224,8.0,15.0,71,0.00,,,0.00,Wunderground v.1.15,2013-08-20 20:23:00,
2013-08-20 15:28:00,85.4,75.3,29.80,SSE,153,11.0,11.0,72,0.00,,,0.00,Wunderground v.1.15,2013-08-20 20:28:00,
2013-08-20 15:33:00,86.7,74.4,29.80,SW,225,6.0,11.0,67,0.00,,,0.00,Wunderground v.1.15,2013-08-20 20:33:00,
2013-08-20 15:38:00,85.7,74.4,29.80,SSW,192,9.0,11.0,69,0.00,,,0.00,Wunderground v.1.15,2013-08-20 20:38:00,
2013-08-20 15:43:00,86.4,75.0,29.80,SSW,194,5.0,11.0,69,0.00,,,0.00,Wunderground v.1.15,2013-08-20 20:43:00,
2013-08-20 15:48:00,86.9,74.6,29.79,SSW,194,5.0,12.0,67,0.00,,,0.00,Wunderground v.1.15,2013-08-20 20:48:00,
2013-08-20 15:53:00,85.6,73.8,29.80,SW,221,7.0,12.0,68,0.00,,,0.00,Wunderground v.1.15,2013-08-20 20:53:00,
2013-08-20 15:58:00,85.5,74.2,29.80,SW,224,9.0,12.0,69,0.00,,,0.00,Wunderground v.1.15,2013-08-20 20:58:00,
2013-08-20 16:03:00,84.7,74.3,29.80,SSW,211,5.0,13.0,71,0.00,,,0.00,Wunderground v.1.15,2013-08-20 21:03:00,
2013-08-20 16:08:00,84.7,74.3,29.79,SSW,210,9.0,11.0,71,0.00,,,0.00,Wunderground v.1.15,2013-08-20 21:08:00,
2013-08-20 16:13:00,85.8,74.0,29.79,South,181,6.0,13.0,68,0.00,,,0.00,Wunderground v.1.15,2013-08-20 21:13:00,
2013-08-20 16:18:00,86.2,74.8,29.79,SSW,194,9.0,14.0,69,0.00,,,0.00,Wunderground v.1.15,2013-08-20 21:18:00,
2013-08-20 16:23:00,86.7,75.3,29.79,SSW,205,4.0,14.0,69,0.00,,,0.00,Wunderground v.1.15,2013-08-20 21:23:00,
2013-08-20 16:28:00,87.2,74.5,29.79,South,188,12.0,13.0,66,0.00,,,0.00,Wunderground v.1.15,2013-08-20 21:28:00,
2013-08-20 16:33:00,85.6,73.8,29.79,SW,216,5.0,13.0,68,0.00,,,0.00,Wunderground v.1.15,2013-08-20 21:33:00,
2013-08-20 16:38:00,85.9,75.0,29.79,South,188,6.0,9.0,70,0.00,,,0.00,Wunderground v.1.15,2013-08-20 21:38:00,
2013-08-20 16:43:00,86.6,75.2,29.79,SSW,202,8.0,11.0,69,0.00,,,0.00,Wunderground v.1.15,2013-08-20 21:43:00,
2013-08-20 16:48:00,86.9,74.2,29.79,SSW,209,10.0,10.0,66,0.00,,,0.00,Wunderground v.1.15,2013-08-20 21:48:00,
2013-08-20 16:54:00,86.8,74.1,29.79,SW,217,10.0,12.0,66,0.00,,,0.00,Wunderground v.1.15,2013-08-20 21:54:00,
2013-08-20 16:59:00,86.0,74.2,29.79,SSW,200,7.0,9.0,68,0.00,,,0.00,Wunderground v.1.15,2013-08-20 21:59:00,
2013-08-20 17:04:00,86.1,74.3,29.79,SW,223,11.0,11.0,68,0.00,,,0.00,Wunderground v.1.15,2013-08-20 22:04:00,
2013-08-20 17:09:00,85.7,73.5,29.79,SSW,213,6.0,13.0,67,0.00,,,0.00,Wunderground v.1.15,2013-08-20 22:09:00,
2013-08-20 17:14:00,85.1,74.2,29.79,SSW,209,6.0,13.0,70,0.00,,,0.00,Wunderground v.1.15,2013-08-20 22:14:00,
2013-08-20 17:19:00,85.7,74.4,29.79,SW,223,7.0,15.0,69,0.00,,,0.00,Wunderground v.1.15,2013-08-20 22:19:00,
2013-08-20 17:24:00,85.9,74.5,29.79,SW,223,9.0,15.0,69,0.00,,,0.00,Wunderground v.1.15,2013-08-20 22:24:00,
2013-08-20 17:29:00,85.8,74.4,29.79,SW,225,8.0,12.0,69,0.00,,,0.00,Wunderground v.1.15,2013-08-20 22:29:00,
2013-08-20 17:34:00,86.0,74.6,29.79,SW,217,4.0,12.0,69,0.00,,,0.00,Wunderground v.1.15,2013-08-20 22:34:00,
2013-08-20 17:39:00,86.3,75.4,29.79,SSW,203,9.0,9.0,70,0.00,,,0.00,Wunderground v.1.15,2013-08-20 22:39:00,
2013-08-20 17:44:00,86.1,74.7,29.79,SSW,205,9.0,11.0,69,0.00,,,0.00,Wunderground v.1.15,2013-08-20 22:44:00,
2013-08-20 17:49:00,85.9,75.0,29.79,SSW,204,8.0,11.0,70,0.00,,,0.00,Wunderground v.1.15,2013-08-20 22:49:00,
2013-08-20 17:54:00,85.8,74.9,29.79,SW,215,8.0,12.0,70,0.00,,,0.00,Wunderground v.1.15,2013-08-20 22:54:00,
2013-08-20 17:59:00,85.6,74.7,29.79,SSW,203,11.0,11.0,70,0.00,,,0.00,Wunderground v.1.15,2013-08-20 22:59:00,
2013-08-20 18:04:00,84.9,74.4,29.79,SW,216,11.0,13.0,71,0.00,,,0.00,Wunderground v.1.15,2013-08-20 23:04:00,
2013-08-20 18:09:00,84.4,74.4,29.79,SSW,205,7.0,11.0,72,0.00,,,0.00,Wunderground v.1.15,2013-08-20 23:09:00,
2013-08-20 18:14:00,84.5,74.9,29.79,SSW,202,8.0,11.0,73,0.00,,,0.00,Wunderground v.1.15,2013-08-20 23:14:00,
2013-08-20 18:19:00,84.8,75.2,29.79,SW,220,9.0,12.0,73,0.00,,,0.00,Wunderground v.1.15,2013-08-20 23:19:00,
2013-08-20 18:24:00,84.8,74.8,29.79,SW,219,8.0,12.0,72,0.00,,,0.00,Wunderground v.1.15,2013-08-20 23:24:00,
2013-08-20 18:29:00,84.7,75.1,29.80,SW,225,10.0,12.0,73,0.00,,,0.00,Wunderground v.1.15,2013-08-20 23:29:00,
2013-08-20 18:34:00,84.3,74.7,29.80,SSW,206,7.0,13.0,73,0.00,,,0.00,Wunderground v.1.15,2013-08-20 23:34:00,
2013-08-20 18:39:00,83.8,74.2,29.80,SSW,194,10.0,12.0,73,0.00,,,0.00,Wunderground v.1.15,2013-08-20 23:39:00,
2013-08-20 18:44:00,83.5,74.3,29.80,SSW,200,8.0,12.0,74,0.00,,,0.00,Wunderground v.1.15,2013-08-20 23:44:00,
2013-08-20 18:50:00,83.3,74.1,29.80,SSW,200,7.0,10.0,74,0.00,,,0.00,Wunderground v.1.15,2013-08-20 23:50:00,
2013-08-20 18:55:00,83.0,74.3,29.79,WSW,238,6.0,10.0,75,0.00,,,0.00,Wunderground v.1.15,2013-08-20 23:55:00,
2013-08-20 19:00:00,82.7,74.4,29.79,South,190,5.0,8.0,76,0.00,,,0.00,Wunderground v.1.15,2013-08-21 00:00:00,
2013-08-20 19:05:00,82.4,74.5,29.80,SSW,211,7.0,8.0,77,0.00,,,0.00,Wunderground v.1.15,2013-08-21 00:05:00,
2013-08-20 19:10:00,82.1,74.6,29.80,SSW,195,5.0,7.0,78,0.00,,,0.00,Wunderground v.1.15,2013-08-21 00:10:00,
2013-08-20 19:15:00,81.9,74.4,29.80,SSW,193,7.0,8.0,78,0.00,,,0.00,Wunderground v.1.15,2013-08-21 00:15:00,
2013-08-20 19:20:00,81.8,74.3,29.79,SSW,202,4.0,8.0,78,0.00,,,0.00,Wunderground v.1.15,2013-08-21 00:20:00,
2013-08-20 19:25:00,81.4,74.3,29.80,SSW,205,5.0,8.0,79,0.00,,,0.00,Wunderground v.1.15,2013-08-21 00:25:00,
2013-08-20 19:30:00,81.2,74.1,29.80,SSW,194,4.0,7.0,79,0.00,,,0.00,Wunderground v.1.15,2013-08-21 00:30:00,
2013-08-20 19:35:00,80.9,74.1,29.80,SSW,198,4.0,7.0,80,0.00,,,0.00,Wunderground v.1.15,2013-08-21 00:35:00,
2013-08-20 19:40:00,80.5,74.1,29.80,South,190,4.0,6.0,81,0.00,,,0.00,Wunderground v.1.15,2013-08-21 00:40:00,
2013-08-20 19:45:00,80.1,74.1,29.80,SSW,195,4.0,4.0,82,0.00,,,0.00,Wunderground v.1.15,2013-08-21 00:45:00,
2013-08-20 19:50:00,79.7,74.1,29.80,SSW,202,3.0,5.0,83,0.00,,,0.00,Wunderground v.1.15,2013-08-21 00:50:00,
2013-08-20 19:55:00,79.1,73.8,29.80,South,186,3.0,5.0,84,0.00,,,0.00,Wunderground v.1.15,2013-08-21 00:55:00,
2013-08-20 20:00:00,78.6,73.7,29.80,South,187,3.0,4.0,85,0.00,,,0.00,Wunderground v.1.15,2013-08-21 01:00:00,
2013-08-20 20:05:00,78.2,73.7,29.80,South,176,4.0,4.0,86,0.00,,,0.00,Wunderground v.1.15,2013-08-21 01:05:00,
2013-08-20 20:10:00,78.1,73.6,29.80,South,178,2.0,6.0,86,0.00,,,0.00,Wunderground v.1.15,2013-08-21 01:10:00,
2013-08-20 20:15:00,77.7,73.2,29.80,South,178,3.0,3.0,86,0.00,,,0.00,Wunderground v.1.15,2013-08-21 01:15:00,
2013-08-20 20:19:00,77.3,73.1,29.80,South,178,4.0,4.0,87,0.00,,,0.00,Wunderground v.1.15,2013-08-21 01:19:00,
2013-08-20 20:24:00,77.0,72.8,29.80,South,172,3.0,5.0,87,0.00,,,0.00,Wunderground v.1.15,2013-08-21 01:24:00,
2013-08-20 20:29:00,76.8,72.6,29.81,South,175,3.0,5.0,87,0.00,,,0.00,Wunderground v.1.15,2013-08-21 01:29:00,
2013-08-20 20:34:00,76.4,72.6,29.81,SSE,168,2.0,5.0,88,0.00,,,0.00,Wunderground v.1.15,2013-08-21 01:34:00,
2013-08-20 20:39:00,76.0,72.2,29.81,South,174,3.0,5.0,88,0.00,,,0.00,Wunderground v.1.15,2013-08-21 01:39:00,
2013-08-20 20:45:00,75.7,72.2,29.81,South,174,2.0,5.0,89,0.00,,,0.00,Wunderground v.1.15,2013-08-21 01:45:00,
2013-08-20 20:50:00,75.4,71.9,29.81,SSE,158,5.0,5.0,89,0.00,,,0.00,Wunderground v.1.15,2013-08-21 01:50:00,
2013-08-20 20:55:00,75.2,71.7,29.81,SSE,163,2.0,5.0,89,0.00,,,0.00,Wunderground v.1.15,2013-08-21 01:55:00,
2013-08-20 21:00:00,74.8,71.7,29.81,SSE,163,4.0,4.0,90,0.00,,,0.00,Wunderground v.1.15,2013-08-21 02:00:00,
2013-08-20 21:05:00,74.6,71.5,29.81,SSE,163,1.0,4.0,90,0.00,,,0.00,Wunderground v.1.15,2013-08-21 02:05:00,
2013-08-20 21:10:00,74.4,71.6,29.81,South,171,4.0,4.0,91,0.00,,,0.00,Wunderground v.1.15,2013-08-21 02:10:00,
2013-08-20 21:15:00,74.2,71.4,29.82,South,184,3.0,5.0,91,0.00,,,0.00,Wunderground v.1.15,2013-08-21 02:15:00,
2013-08-20 21:20:00,73.9,71.1,29.82,South,183,3.0,5.0,91,0.00,,,0.00,Wunderground v.1.15,2013-08-21 02:20:00,
2013-08-20 21:25:00,73.8,71.0,29.82,South,184,3.0,5.0,91,0.00,,,0.00,Wunderground v.1.15,2013-08-21 02:25:00,
2013-08-20 21:30:00,73.6,70.8,29.82,South,184,3.0,4.0,91,0.00,,,0.00,Wunderground v.1.15,2013-08-21 02:30:00,
2013-08-20 21:35:00,73.4,70.9,29.82,South,182,4.0,4.0,92,0.00,,,0.00,Wunderground v.1.15,2013-08-21 02:35:00,
2013-08-20 21:40:00,73.4,70.9,29.82,South,178,3.0,5.0,92,0.00,,,0.00,Wunderground v.1.15,2013-08-21 02:40:00,
2013-08-20 21:45:00,73.4,70.9,29.82,South,184,2.0,3.0,92,0.00,,,0.00,Wunderground v.1.15,2013-08-21 02:45:00,
2013-08-20 21:50:00,73.1,70.6,29.82,SSW,192,3.0,4.0,92,0.00,,,0.00,Wunderground v.1.15,2013-08-21 02:50:00,
2013-08-20 21:55:00,73.0,70.5,29.83,South,184,3.0,3.0,92,0.00,,,0.00,Wunderground v.1.15,2013-08-21 02:55:00,
2013-08-20 22:00:00,73.0,70.5,29.83,South,178,3.0,4.0,92,0.00,,,0.00,Wunderground v.1.15,2013-08-21 03:00:00,
2013-08-20 22:05:00,73.0,70.5,29.83,South,185,3.0,3.0,92,0.00,,,0.00,Wunderground v.1.15,2013-08-21 03:05:00,
2013-08-20 22:10:00,72.8,70.3,29.83,South,171,4.0,5.0,92,0.00,,,0.00,Wunderground v.1.15,2013-08-21 03:10:00,
2013-08-20 22:15:00,72.8,70.7,29.83,SSE,168,4.0,4.0,93,0.00,,,0.00,Wunderground v.1.15,2013-08-21 03:15:00,
2013-08-20 22:20:00,72.8,70.7,29.83,South,180,4.0,5.0,93,0.00,,,0.00,Wunderground v.1.15,2013-08-21 03:20:00,
2013-08-20 22:25:00,72.7,70.2,29.83,South,174,3.0,5.0,92,0.00,,,0.00,Wunderground v.1.15,2013-08-21 03:25:00,
2013-08-20 22:30:00,72.5,70.4,29.83,South,173,3.0,5.0,93,0.00,,,0.00,Wunderground v.1.15,2013-08-21 03:30:00,
2013-08-20 22:35:00,72.2,70.1,29.83,South,176,3.0,4.0,93,0.00,,,0.00,Wunderground v.1.15,2013-08-21 03:35:00,
2013-08-20 22:40:00,72.1,70.0,29.83,SSE,159,2.0,5.0,93,0.00,,,0.00,Wunderground v.1.15,2013-08-21 03:40:00,
2013-08-20 22:45:00,72.0,69.9,29.83,South,171,2.0,4.0,93,0.00,,,0.00,Wunderground v.1.15,2013-08-21 03:45:00,
2013-08-20 22:50:00,71.8,69.7,29.83,South,171,4.0,4.0,93,0.00,,,0.00,Wunderground v.1.15,2013-08-21 03:50:00,
2013-08-20 22:55:00,71.6,69.8,29.83,South,171,4.0,4.0,94,0.00,,,0.00,Wunderground v.1.15,2013-08-21 03:55:00,
2013-08-20 23:00:00,71.5,69.7,29.83,South,171,2.0,4.0,94,0.00,,,0.00,Wunderground v.1.15,2013-08-21 04:00:00,
2013-08-20 23:01:00,71.5,69.7,29.83,South,171,4.0,4.0,94,0.00,,,0.00,Wunderground v.1.15,2013-08-21 04:01:00,
2013-08-20 23:06:00,71.4,69.6,29.83,SSE,157,5.0,5.0,94,0.00,,,0.00,Wunderground v.1.15,2013-08-21 04:06:00,
2013-08-20 23:11:00,71.2,69.4,29.83,SSE,155,4.0,6.0,94,0.00,,,0.00,Wunderground v.1.15,2013-08-21 04:11:00,
2013-08-20 23:16:00,71.0,69.2,29.83,SSE,153,4.0,6.0,94,0.00,,,0.00,Wunderground v.1.15,2013-08-21 04:16:00,
2013-08-20 23:21:00,70.8,69.0,29.83,SSE,153,4.0,6.0,94,0.00,,,0.00,Wunderground v.1.15,2013-08-21 04:21:00,
2013-08-20 23:26:00,70.6,68.8,29.83,SSE,148,3.0,4.0,94,0.00,,,0.00,Wunderground v.1.15,2013-08-21 04:26:00,
2013-08-20 23:31:00,70.3,68.5,29.83,SSE,155,3.0,5.0,94,0.00,,,0.00,Wunderground v.1.15,2013-08-21 04:31:00,
2013-08-20 23:36:00,70.2,68.7,29.83,SSE,160,4.0,4.0,95,0.00,,,0.00,Wunderground v.1.15,2013-08-21 04:36:00,
2013-08-20 23:42:00,70.1,68.6,29.83,SSE,162,4.0,5.0,95,0.00,,,0.00,Wunderground v.1.15,2013-08-21 04:42:00,
2013-08-20 23:47:00,70.0,68.5,29.83,SSE,166,3.0,5.0,95,0.00,,,0.00,Wunderground v.1.15,2013-08-21 04:47:00,
2013-08-20 23:52:00,70.0,68.5,29.83,South,171,4.0,5.0,95,0.00,,,0.00,Wunderground v.1.15,2013-08-21 04:52:00,
2013-08-20 23:57:00,70.0,68.5,29.83,South,172,3.0,4.0,95,0.00,,,0.00,Wunderground v.1.15,2013-08-21 04:57:00,